Вернуться в каталог

FENGYUN 1C DEB

АктивенLEO
NORAD 32168·DEBRIS·🇨🇳 China

Запущен May 10, 1999 с Taiyuan Satellite Launch Center

Loading…

Ближайшие Пролёты (ближайшие 24 часа)

TLE

СвежийSource: Space-Track

Эпоха: Sep 13, 2026, 15:52 UTC

1 32168U 99025CTN 26256.66131795  .00003205  00000-0  21677-2 0  9999
2 32168 101.6574  37.9732 0245368 280.7014  76.6595 13.87838238672911

Отслеживайте FENGYUN 1C DEB в реальном времени с AllMySat

Download on the App Store